This is the latest recevied weather packets stored in our database for station/object iz1wiy-3. If no packets are shown the sender has not sent any weather packets the latest 1 day(s).
| Time | Temp. | Humidity | Pressure | Rain* | Wind** | Luminosity | Snow |
|---|---|---|---|---|---|---|---|
| 1778043783 | 17.22° C | 87% | 1009.2 hPa | 2.29 mm | 2.68 m/s, 218° | - | - |
| 1778043723 | 17.22° C | 87% | 1009.1 hPa | 2.29 mm | 2.68 m/s, 217° | - | - |
| 1778043663 | 17.22° C | 88% | 1009.1 hPa | 2.29 mm | 2.68 m/s, 219° | - | - |
| 1778043603 | 17.22° C | 88% | 1009.1 hPa | 2.29 mm | 2.68 m/s, 219° | - | - |
| 1778043551 | 17.22° C | 88% | 1009.1 hPa | 2.29 mm | 3.13 m/s, 218° | - | - |
| 1778043483 | 17.22° C | 88% | 1009.2 hPa | 2.29 mm | 3.13 m/s, 219° | - | - |
| 1778043423 | 17.22° C | 88% | 1009.2 hPa | 2.29 mm | 3.13 m/s, 218° | - | - |
| 1778043363 | 17.22° C | 88% | 1009.2 hPa | 2.79 mm | 3.13 m/s, 218° | - | - |
| 1778043303 | 16.67° C | 88% | 1009.2 hPa | 3.05 mm | 3.13 m/s, 216° | - | - |
| 1778043243 | 16.67° C | 88% | 1009.3 hPa | 3.05 mm | 3.13 m/s, 214° | - | - |
| 1778043183 | 16.67° C | 88% | 1009.2 hPa | 2.79 mm | 3.58 m/s, 212° | - | - |
| 1778043124 | 16.67° C | 88% | 1009.2 hPa | 2.79 mm | 3.58 m/s, 210° | - | - |
| 1778043064 | 17.22° C | 88% | 1009.2 hPa | 2.79 mm | 3.58 m/s, 208° | - | - |
| 1778043003 | 17.22° C | 88% | 1009.3 hPa | 2.54 mm | 3.58 m/s, 207° | - | - |
| 1778042943 | 17.22° C | 88% | 1009.4 hPa | 2.29 mm | 3.58 m/s, 208° | - | - |
| 1778042883 | 17.22° C | 88% | 1009.3 hPa | 2.03 mm | 3.58 m/s, 209° | - | - |
| 1778042823 | 17.22° C | 88% | 1009.3 hPa | 2.03 mm | 3.58 m/s, 207° | - | - |
| 1778042763 | 17.22° C | 88% | 1009.2 hPa | 2.29 mm | 3.58 m/s, 205° | - | - |
| 1778042703 | 17.22° C | 88% | 1009.2 hPa | 2.54 mm | 4.02 m/s, 208° | - | - |
| 1778042643 | 17.22° C | 88% | 1009.3 hPa | 3.3 mm | 4.02 m/s, 212° | - | - |
| 1778042583 | 17.22° C | 88% | 1009.3 hPa | 4.06 mm | 4.02 m/s, 212° | - | - |
| 1778042523 | 17.22° C | 88% | 1009.3 hPa | 4.06 mm | 4.02 m/s, 211° | - | - |
| 1778042463 | 17.22° C | 88% | 1009.3 hPa | 3.81 mm | 4.02 m/s, 211° | - | - |
| 1778042403 | 17.22° C | 88% | 1009.3 hPa | 3.81 mm | 4.47 m/s, 209° | - | - |
| 1778042343 | 17.22° C | 88% | 1009.3 hPa | 3.56 mm | 4.47 m/s, 209° | - | - |
* Rain latest hour (hover to see other rain measurements)
** Current wind speed in m/s (hover to see current wind gust speed)